Location: *
(43.9905°S, 176.4941°W)
Time: 20:31:27
(UTC+00:00)

Cosmos 1733 - Pass Details

Date: 08 December 2019
Orbit: 506 x 521 km, 82.5° (Epoch: 20 January)

Event Time Altitude Azimuth Distance (km) Brightness Sun altitude
Exits shadow 10:05:06 50° 334° (NNW) 680 3.5 -20.0°
Maximum altitude 10:06:01 76° 262° (W) 552 3.3 -20.1°
Drops below altitude 10° 10:09:58 10° 175° (S) 1,797 6.8 -20.3°
Sets 10:12:09 0° 173° (S) 2,696 7.9 -20.5°
